Regional Weather Roundup
Issued by NWS

Home | Current Version | Previous Version | Graphics & Text | Print | Product List | Glossary Off
Versions: 1 2 3 4 5 6 7 8 9 10 11 12 13 14 15 16 17 18 19 20 21 22 23 24 25 26 27 28 29 30 31 32 33 34 35 36 37 38 39 40 41 42 43 44 45 46 47 48 49 50

000
ASUS43 KDTX 261910
RWRMI
MICHIGAN HOURLY REGIONAL WEATHER ROUNDUP
NATIONAL WEATHER SERVICE DETROIT/PONTIAC MI
300 PM EDT WED APR 26 2017

NOTE: "FAIR" INDICATES FEW OR NO CLOUDS BELOW 12,000 FEET WITH NO
SIGNIFICANT WEATHER AND/OR OBSTRUCTION TO VISIBILITY.

MIZ047>049-052>055-059>063-066>070-074>076-081>083-262000-
SOUTHEAST LOWER MICHIGAN

CITY           SKY/WX    TMP DP  RH WIND       PRES   REMARKS
ADRIAN         SUNNY     80  56  43 SW23G32   29.55F
ALMA           PTSUNNY   77  55  47 S22G30    29.49F
ANN ARBOR      MOSUNNY   79  58  48 SE13G23   29.55F
BAD AXE        SUNNY     72  58  62 SE14G23   29.56S
CARO           SUNNY     75  58  54 SE20G28   29.53F
DETROIT CITY   SUNNY     75  59  57 SE17G28   29.58F
DETROIT        PTSUNNY   75  59  57 SE17G25   29.58F
FLINT          MOSUNNY   76  55  48 S24G33    29.53F
GROSSE ILE     SUNNY     72  59  63 SE9G16    29.57F
HILLSDALE      SUNNY     77  55  47 S20G28    29.54S
HOWELL         MOSUNNY   78  52  40 S22G29    29.53F

CITY           SKY/WX    TMP DP  RH WIND       PRES   REMARKS
JACKSON        SUNNY     80  54  40 S23G32    29.52F
LAMBERTVILLE   SUNNY     80  54  40 S16G25    29.55F
LANSING        SUNNY     81  55  40 S24G37    29.50F
LAPEER         FAIR      74  55  52 S17G36    29.56F
MASON          MOSUNNY   80  57  45 S16G26    29.52S
MONROE         SUNNY     76  59  56 E12G18    29.56F
MT. CLEMENS    PTSUNNY   69  59  71 SE18G26   29.58F
PONTIAC        MOSUNNY   75  57  53 SE16G28   29.55F
PORT HOPE        N/A     67  55  65 SE20G37   29.55F
PORT HURON     SUNNY     72  55  56 SE18G26   29.60F
TRI CITIES     MOSUNNY   78  56  46 S24G32    29.51F
MIDLAND        FAIR      78  53  42 S14G28    29.49F
TROY           SUNNY     77  55  46 S14G22    29.59F
SAGINAW HB     CLOUDY    79  50  36 S17G28    29.51S
$$
MIZ043>046-050>051-056>058-064>065-071>073-077>080-262000-
SOUTHWEST LOWER MICHIGAN

CITY           SKY/WX    TMP DP  RH WIND       PRES   REMARKS
BATTLE CREEK   CLOUDY    77  59  53 S21G30    29.51R
BENTON HARBOR  PTSUNNY   75  56  51 W21G29    29.48R
BIG RAPIDS     CLOUDY    76  53  43 S23G35    29.44F
COLDWATER      MOSUNNY   79  57  46 S13G23    29.52S
FREMONT        CLOUDY    74  54  49 SW21G29   29.45R
HOLLAND        CLOUDY    76  59  55 SW20G26   29.47R
GRAND RAPIDS   PTSUNNY   79  60  52 S24G33    29.47S
IONIA          PTSUNNY   79  54  42 S18G30    29.48S
KALAMAZOO      PTSUNNY   78  58  49 S23       29.49S
LUDINGTON      CLOUDY    62  56  79 SW20G26   29.45R
MARSHALL       CLOUDY    80  57  45 S21G29    29.51S
MOUNT PLEASANT CLOUDY    76  55  48 S16G23    29.48F
MUSKEGON       MOSUNNY   73  57  57 SW18G26   29.47R
SOUTH HAVEN    PTSUNNY   72  56  57 SW16      29.47R
$$
MIZ016>042-262000-
NORTHERN LOWER MICHIGAN

CITY           SKY/WX    TMP DP  RH WIND       PRES   REMARKS
ALPENA         SUNNY     64  54  69 SE21G33   29.53F
BEAVER ISLAND  RAIN      49  45  85 E8        29.42S
BELLAIRE       CLOUDY    77  52  42 S17G32    29.39F
CADILLAC       PTSUNNY   73  54  50 S15G32    29.43F
CHARLEVOIX     CLOUDY    76  53  44 SE17G25   29.41F
FRANKFORT      CLOUDY    58  53  81 S14G22    29.44R
GAYLORD        PTSUNNY   74  51  44 S22G31    29.45F
GRAYLING       PTSUNNY   77  54  44 S18G32    29.46F
HARBOR SPRINGS CLOUDY    75  50  41 SE13G24   29.41F
HOUGHTON LAKE  PTSUNNY   72  53  51 S21G36    29.48S
MANISTEE       CLOUDY    65  58  78 SW9G17    29.44R
OSCODA         MOSUNNY   63  51  64 SE13G21   29.55F
PELLSTON       CLOUDY    74  51  44 SE15G25   29.42F
ROGERS CITY    CLOUDY    67  55  63 SE18G26   29.52F
TRAVERSE CITY  CLOUDY    76  54  46 SE13G24   29.37F
$$
MIZ007>008-015-262000-
EASTERN UPPER MICHIGAN

CITY           SKY/WX    TMP DP  RH WIND       PRES   REMARKS
KINROSS        CLOUDY    55  49  80 E23G30    29.49F
MACKINAC ISLAN FOG       42  42 100 E21G35    29.47F VSB 1/2
NEWBERRY       CLOUDY    59  55  85 E10       29.43F
S. S. MARIE    CLOUDY    58  50  75 SE18G31   29.51F
MUNISING         N/A     47  46  97 CALM      29.40F
$$
MIZ004>006-011>014-085-262000-
CENTRAL UPPER MICHIGAN

CITY           SKY/WX    TMP DP  RH WIND       PRES   REMARKS
MANISTIQUE     RAIN      52  52  98 E8        29.41F
ESCANABA       LGT RAIN  52  50  93 E10       29.40F FOG
MENOMINEE      LGT RAIN  53  51  93 S8        29.39S
SAWYER-GWINN   RAIN      41  39  93 NE3       29.40F VSB 1/2
$$
MIZ001>003-009>011-084-262000-
WESTERN UPPER MICHIGAN

CITY           SKY/WX    TMP DP  RH WIND       PRES   REMARKS
IRON MOUNTAIN  LGT RAIN  55  51  86 SE7       29.36F FOG
HOUGHTON       RAIN      36  33  89 NE13G22   29.45F FOG     WCI  27
COPPER HARBOR    N/A     36  35  96 E12       29.50F WCI  28
IRONWOOD       LGT RAIN  33  32  96 N12G18    29.47F WCI  24
$$

ABBREVIATIONS USED IN REMARKS
   TC - TEMPERATURE IN CELSIUS
  WCI - WIND CHILL INDEX
   HX - HEAT INDEX
  VSB - VISIBILITY




USA.gov is the U.S. government's official web portal to all federal, state and local government web resources and services.